This is the latest recevied weather packets stored in our database for station/object N8QF-1. If no packets are shown the sender has not sent any weather packets the latest 1 day(s).
| Time | Temp. | Humidity | Pressure | Rain* | Wind** | Luminosity | Snow |
|---|---|---|---|---|---|---|---|
| 1778082525 | 12.22° C | 57% | 1013.3 hPa | 0 mm | - | - | - |
| 1778081924 | 11.67° C | 57% | 1013.5 hPa | 0 mm | - | - | - |
| 1778081323 | 11.67° C | 59% | 1013.5 hPa | 0 mm | - | - | - |
| 1778080722 | 11.67° C | 62% | 1013.5 hPa | 0 mm | - | - | - |
| 1778080517 | 11.67° C | 59% | 1013.3 hPa | 0 mm | - | - | - |
| 1778080421 | 11.67° C | 59% | 1013.3 hPa | 0 mm | - | - | - |
| 1778080120 | 11.67° C | 60% | 1013.1 hPa | 0 mm | - | - | - |
| 1778078918 | 11.11° C | 64% | 1012.5 hPa | 0 mm | - | - | - |
| 1778076813 | 10° C | 68% | 1012.4 hPa | 0 mm | - | - | - |
| 1778076212 | 10° C | 69% | 1012.1 hPa | 0 mm | - | - | - |
| 1778075609 | 9.44° C | 73% | 1012.3 hPa | 0 mm | - | - | - |
| 1778074404 | 9.44° C | 76% | 1012.4 hPa | 0 mm | - | - | - |
| 1778073202 | 8.89° C | 80% | 1012 hPa | 0 mm | - | - | - |
| 1778072601 | 8.89° C | 81% | 1012 hPa | 0 mm | - | - | - |
| 1778072300 | 8.33° C | 81% | 1011.9 hPa | 0 mm | - | - | - |
| 1778071098 | 8.33° C | 83% | 1011.6 hPa | 0 mm | - | - | - |
| 1778070798 | 8.33° C | 85% | 1011.3 hPa | 0 mm | - | - | - |
| 1778069895 | 8.33° C | 85% | 1011.5 hPa | 0 mm | - | - | - |
| 1778069294 | 7.78° C | 87% | 1011.3 hPa | 0 mm | - | - | - |
| 1778068091 | 7.78° C | 89% | 1010.9 hPa | 0 mm | - | - | - |
| 1778066889 | 7.78° C | 90% | 1010 hPa | 0 mm | - | - | - |
| 1778065687 | 7.22° C | 89% | 1010.1 hPa | 0 mm | - | - | - |
| 1778065386 | 7.22° C | 89% | 1010.3 hPa | 0 mm | - | - | - |
| 1778065085 | 7.22° C | 89% | 1010.3 hPa | 0 mm | - | - | - |
| 1778064785 | 7.22° C | 89% | 1010.2 hPa | 0 mm | - | - | - |
* Rain latest hour (hover to see other rain measurements)
** Current wind speed in m/s (hover to see current wind gust speed)